Location: Bellflower
(33.8817°N, 118.1170°W)
Time: 23:39:14
(UTC+00:00)

NOSS 3-2 (C) - Pass Details

Date: 23 November 2020
Orbit: 789 x 1424 km, 63.4° (Epoch: 09 January)

Event Time Altitude Azimuth Distance (km) Brightness Sun altitude
Exits shadow 13:39:05 - 329° (NNW) 3,861 6.2 -11.3°
Reaches altitude 10° 13:41:01 10° 329° (NNW) 3,208 5.8 -10.9°
Maximum altitude 13:48:59 90° 46° (NE) 1,355 4.3 -9.3°
Drops below altitude 10° 13:57:44 10° 152° (SSE) 3,503 7.2 -7.6°
Sets 14:00:42 0° 152° (SSE) 4,488 7.8 -7.0°
